User: anonymous   Login
Location: Unspecified
(0.0000°N, 0.0000°E)
Time: 05:50:02
(UTC+00:00)
Language:

KUIPER-00135 - Orbit

View from above orbital plane
View from above orbital plane
View from above satellite
View from above satellite

Ground track
Ground track

The orbit is defined by the following mean orbital elements,

1 65777U          26145.63091050 +.00000000 +00000-0 +62602-3 0 00006
2 65777  51.8951  22.7408 0002270 171.6597 188.4447 15.81704779    08
Epoch (UTC): 25 May 2026 15:08:30
Eccentricity: 0.0002270
inclination: 51.8951°
perigee height: 324 km
apogee height: 327 km
right ascension of ascending node: 22.7408°
argument of perigee: 171.6597°
revolutions per day: 15.81704779
mean anomaly at epoch: 188.4447°

The dashed part of the orbit path shows where the satellite is in the earth's shadow,  

DLR